This is the latest recevied weather packets stored in our database for station/object N3FAA. If no packets are shown the sender has not sent any weather packets the latest 10 day(s).
| Time | Temp. | Humidity | Pressure | Rain* | Wind** | Luminosity | Snow |
|---|---|---|---|---|---|---|---|
| 1778165915 | 18.89° C | 47% | 1015 hPa | 0 mm | - | 243 W/m² | - |
| 1778165612 | 18.33° C | 48% | 1015.1 hPa | 0 mm | - | 232 W/m² | - |
| 1778165309 | 18.33° C | 48% | 1015 hPa | 0 mm | - | 218 W/m² | - |
| 1778165006 | 18.33° C | 48% | 1014.9 hPa | 0 mm | - | 165 W/m² | - |
| 1778164702 | 17.78° C | 50% | 1014.9 hPa | 0 mm | - | 141 W/m² | - |
| 1778164400 | 17.22° C | 51% | 1014.9 hPa | 0 mm | - | 144 W/m² | - |
| 1778164096 | 17.22° C | 52% | 1014.9 hPa | 0 mm | - | 146 W/m² | - |
| 1778163792 | 16.67° C | 53% | 1014.9 hPa | 0 mm | - | 127 W/m² | - |
| 1778163489 | 16.67° C | 53% | 1014.6 hPa | 0 mm | - | 109 W/m² | - |
| 1778163186 | 16.67° C | 53% | 1014.6 hPa | 0 mm | - | 80 W/m² | - |
| 1778162882 | 16.67° C | 53% | 1014.8 hPa | 0 mm | - | 65 W/m² | - |
| 1778162579 | 15.56° C | 56% | 1014.7 hPa | 0 mm | - | 59 W/m² | - |
| 1778162277 | 15° C | 57% | 1014.7 hPa | 0 mm | - | 54 W/m² | - |
| 1778161974 | 14.44° C | 59% | 1014.7 hPa | 0 mm | - | 49 W/m² | - |
| 1778161670 | 14.44° C | 59% | 1014.6 hPa | 0 mm | - | 43 W/m² | - |
| 1778161367 | 13.89° C | 59% | 1014.4 hPa | 0 mm | - | 39 W/m² | - |
| 1778161062 | 13.89° C | 59% | 1014.6 hPa | 0 mm | - | 35 W/m² | - |
| 1778160759 | 13.33° C | 61% | 1014 hPa | 0 mm | - | 30 W/m² | - |
| 1778160457 | 12.22° C | 63% | 1014.3 hPa | 0 mm | - | 25 W/m² | - |
| 1778160154 | 12.22° C | 64% | 1014.3 hPa | 0 mm | - | 20 W/m² | - |
| 1778159850 | 11.67° C | 65% | 1014.6 hPa | 0 mm | - | 16 W/m² | - |
| 1778159548 | 11.67° C | 67% | 1014.4 hPa | 0 mm | - | 13 W/m² | - |
| 1778159244 | 11.67° C | 67% | 1014.3 hPa | 0 mm | - | 8 W/m² | - |
| 1778158942 | 11.67° C | 67% | 1014.4 hPa | 0 mm | - | 5 W/m² | - |
| 1778158640 | 10.56° C | 70% | 1014.1 hPa | 0 mm | - | 2 W/m² | - |
* Rain latest hour (hover to see other rain measurements)
** Current wind speed in m/s (hover to see current wind gust speed)